Location: Chisholm
(54.9102°N, 114.1701°W)
Time: 11:39:32
(UTC+00:00)

N. Korean satellite - Pass Details

Date: 06 December 2021
Orbit: 447 x 491 km, 97.3° (Epoch: 25 January)

Event Time Altitude Azimuth Distance (km) Brightness Sun altitude
Rises 13:15:54 0° 12° (NNE) 2,475 10.2 -20.0°
Reaches altitude 10° 13:17:57 10° 11° (N) 1,593 9.2 -19.7°
Maximum altitude 13:21:21 75° 286° (WNW) 472 6.2 -19.2°
Drops below altitude 10° 13:24:43 10° 201° (SSW) 1,575 9.1 -18.7°
Sets 13:26:44 0° 200° (SSW) 2,443 10.1 -18.4°
